User: anonymous   Login
Location: Carnières
(50.1682°N, 3.3474°E)
Time: 15:34:16
(UTC+00:00)
Language:

SL-16 R/B - Orbit

View from above orbital plane
View from above orbital plane
View from above satellite
View from above satellite

Ground track
Ground track

The orbit data is extracted from the following two-line orbital elements,

1 27006U 01056F   24201.96257260 -.00000010  00000-0  40417-4 0  9995
2 27006  99.6901 349.3821 0015344  84.1528  24.7835 13.71034356131283
Epoch (UTC): 19 July 2024 23:06:06
Eccentricity: 0.0015344
inclination: 99.6901°
perigee height: 984 km
apogee height: 1007 km
right ascension of ascending node: 349.3821°
argument of perigee: 84.1528°
revolutions per day: 13.71034356
mean anomaly at epoch: 24.7835°
orbit number at epoch: 13128

The dashed part of the orbit path shows where the satellite is in the earth's shadow,  

DLR